CW2939 Weather Reports


time (UTC)temp
C
wind
direction
speed
KPH
gust
KPH
rain 1hr
cm
rain 24hr
cm
rain mn
cm
humidity
%
barometer
mb
20260507161405 19 115 14.5 20.9 0.00 0.08 0.08 51 1009.7
20260507154904 20 99 11.3 19.3 0.00 0.08 0.08 48 1009.7
20260507151404 20 37 3.2 9.7 0.00 0.08 0.08 50 1009.9
20260507150404 19 205 8.0 25.7 0.00 0.08 0.08 53 1010.0
20260507143404 20 123 9.7 19.3 0.00 0.08 0.08 56 1010.5
20260507140905 18 106 16.1 22.5 0.00 0.08 0.08 59 1010.7
20260507140404 18 118 14.5 27.4 0.00 0.08 0.08 57 1010.8
20260507133904 17 106 9.7 27.4 0.00 0.08 0.08 69 1011.4
20260507131906 17 84 8.0 16.1 0.00 0.08 0.08 73 1011.6
20260507131405 16 89 9.7 22.5 0.00 0.08 0.08 72 1011.6
20260507130904 17 117 11.3 19.3 0.00 0.08 0.08 70 1011.6
20260507124904 17 116 20.9 29.0 0.00 0.08 0.08 68 1011.7
20260507123904 17 100 16.1 27.4 0.00 0.08 0.08 71 1012.0
20260507120404 16 117 19.3 33.8 0.00 0.08 0.08 71 1012.2
20260507114904 16 121 20.9 32.2 0.00 0.08 0.08 76 1012.1
20260507114404 16 117 12.9 29.0 0.00 0.08 0.08 76 1012.1
20260507111404 16 124 16.1 25.7 0.08 0.08 0.08 75 1012.3
20260507110904 16 116 14.5 27.4 0.08 0.08 0.08 76 1012.2
20260507110404 16 110 11.3 32.2 0.08 0.08 0.08 78 1012.2
20260507104904 15 105 14.5 20.9 0.08 0.08 0.08 81 1012.1
20260507103904 15 136 16.1 27.4 0.08 0.08 0.08 80 1012.3
20260507103404 15 118 16.1 29.0 0.08 0.08 0.08 80 1012.1
20260507100904 16 106 16.1 37.0 0.00 0.00 0.00 80 1011.4
20260507094904 17 122 20.9 37.0 0.00 0.00 0.00 78 1011.1
20260507093405 17 124 22.5 40.2 0.00 0.00 0.00 78 1011.1
20260507090404 17 118 22.5 41.8 0.00 0.00 0.00 78 1011.2
20260507084905 16 118 22.5 33.8 0.00 0.00 0.00 78 1011.3
20260507083904 16 117 19.3 32.2 0.00 0.00 0.00 79 1011.2
20260507081904 16 132 16.1 32.2 0.00 0.00 0.00 80 1011.1
20260507080904 16 107 16.1 27.4 0.00 0.00 0.00 82 1011.1
20260507073905 16 120 11.3 22.5 0.00 0.00 0.00 80 1011.3
20260507073404 16 115 14.5 22.5 0.00 0.00 0.00 79 1011.3
20260507071904 16 97 3.2 12.9 0.00 0.00 0.00 80 1011.2
20260507071404 15 119 4.8 11.3 0.00 0.00 0.00 81 1011.2
20260507063904 14 198 1.6 3.2 0.00 0.00 0.00 77 1010.9
20260507060404 13 232 3.2 4.8 0.00 0.00 0.00 74 1010.6
20260507054904 13 255 3.2 4.8 0.00 0.00 0.00 72 1010.5
20260507054404 13 239 3.2 4.8 0.00 0.00 0.00 72 1010.4
20260507053904 13 232 1.6 3.2 0.00 0.00 0.00 72 1010.3
20260507053404 13 235 3.2 4.8 0.00 0.00 0.00 73 1010.3
20260507051904 13 239 3.2 4.8 0.00 0.00 0.00 74 1010.4
20260507044904 13 65 3.2 4.8 0.00 0.00 0.00 75 1010.1
20260507043904 13 290 1.6 3.2 0.00 0.00 0.00 77 1010.1
20260507041904 12 242 3.2 4.8 0.00 0.00 0.00 75 1009.9
20260507040904 13 250 4.8 4.8 0.00 0.00 0.00 73 1009.8
20260507034404 12 317 1.6 4.8 0.00 0.00 0.00 74 1009.8
20260507031904 12 276 3.2 4.8 0.00 0.00 0.00 81 1010.1
20260507030904 12 302 3.2 4.8 0.00 0.00 0.00 82 1010.0
20260507030404 12 60 4.8 9.7 0.00 0.00 0.00 80 1010.1
20260507024904 12 248 3.2 4.8 0.00 0.00 0.00 83 1010.0
20260507023904 12 262 4.8 4.8 0.00 0.00 0.00 82 1010.0
20260507021903 12 103 1.6 4.8 0.00 0.00 0.00 81 1009.9
20260507021404 12 115 1.6 4.8 0.00 0.00 0.00 81 1010.0
20260507020904 12 127 4.8 4.8 0.00 0.00 0.00 79 1010.0
20260507020404 13 78 3.2 4.8 0.00 0.00 0.00 79 1010.1
20260507013904 13 276 3.2 4.8 0.00 0.00 0.00 80 1010.1
20260507013404 13 259 4.8 9.7 0.00 0.00 0.00 79 1010.2
20260507011404 13 264 4.8 4.8 0.00 0.00 0.00 80 1010.2
20260507010904 13 286 4.8 9.7 0.00 0.00 0.00 78 1010.3
20260507010404 13 289 3.2 4.8 0.00 0.00 0.00 77 1010.3
20260507004904 13 320 1.6 4.8 0.00 0.00 0.00 79 1010.3
20260507004404 13 320 3.2 4.8 0.00 0.00 0.00 80 1010.3
20260507003904 13 320 3.2 4.8 0.00 0.00 0.00 79 1010.3
20260507001904 13 317 1.6 4.8 0.00 0.00 0.00 78 1010.4
20260507000904 14 331 1.6 3.2 0.00 0.00 0.00 78 1010.6
20260507000405 14 324 3.2 4.8 0.00 0.00 0.00 80 1010.6
20260506233904 14 341 3.2 4.8 0.00 0.00 0.00 78 1010.9
20260506233404 14 351 4.8 4.8 0.00 0.00 0.00 77 1011.1
20260506231404 14 355 3.2 4.8 0.00 0.00 0.00 77 1011.0
20260506230904 15 347 3.2 4.8 0.00 0.00 0.00 78 1011.1
20260506230404 15 0 0.0 4.8 0.00 0.00 0.00 81 1011.1
20260506221904 15 310 1.6 4.8 0.00 0.00 0.00 77 1010.9
20260506221404 15 63 0.0 0.0 0.00 0.00 0.00 78 1011.0
20260506220903 15 67 0.0 1.6 0.00 0.00 0.00 78 1010.9
20260506214904 15 29 3.2 4.8 0.00 0.00 0.00 77 1010.9
20260506213404 15 30 0.0 1.6 0.00 0.00 0.00 75 1011.1
20260506210903 16 121 1.6 4.8 0.00 0.00 0.00 74 1010.9
20260506204404 16 149 1.6 4.8 0.00 0.00 0.00 71 1010.6
20260506203404 16 122 4.8 9.7 0.00 0.00 0.00 73 1010.5
20260506201904 16 110 8.0 11.3 0.00 0.00 0.00 75 1010.4
20260506201403 16 97 8.0 11.3 0.00 0.00 0.00 74 1010.3
20260506194404 17 180 1.6 4.8 0.00 0.00 0.00 61 1009.7
20260506193904 17 158 1.6 4.8 0.00 0.00 0.00 58 1009.7
20260506193404 17 134 1.6 9.7 0.00 0.00 0.00 57 1009.6
20260506190404 18 118 3.2 4.8 0.00 0.00 0.00 49 1009.3
20260506184904 19 105 3.2 4.8 0.00 0.00 0.00 46 1009.1
20260506183404 18 126 1.6 4.8 0.00 0.00 0.00 46 1009.0
20260506181904 18 116 1.6 4.8 0.00 0.00 0.00 48 1008.9
20260506181404 18 120 3.2 8.0 0.00 0.00 0.00 48 1009.0
20260506173404 19 121 4.8 19.3 0.00 0.00 0.00 47 1009.1
20260506171904 19 44 11.3 22.5 0.00 0.00 0.00 46 1009.1
20260506170403 20 101 8.0 19.3 0.00 0.00 0.00 45 1009.0
20260506164904 20 85 4.8 19.3 0.00 0.00 0.00 44 1009.0
20260506163904 20 104 11.3 24.1 0.00 0.00 0.00 43 1009.1
20260506163403 20 152 9.7 22.5 0.00 0.00 0.00 42 1009.1